Skip Page Navigation
NASA JPL Caltech
NASA Logo - Jet Propulsion Laboratory + View the NASA Portal
+ Center for Near-Earth Object Studies
JPL Home Earth Solar System Stars & Galaxies Technology
JPL Solar System Dynamics
BODIES ORBITS EPHEMERIDES TOOLS PHYSICAL DATA DISCOVERY FAQ SITE MAP
JPL Small-Body Database Browser
Search: [ help ]  
201154 (2002 KX4)
Classification: Main-belt Asteroid          SPK-ID: 2201154
Ephemeris | Orbit Diagram | Orbital Elements | Mission Design | Physical Parameters | Discovery Circumstances | Close-Approach Data ]

[ show orbit diagram ]
Orbital Elements at Epoch 2459000.5 (2020-May-31.0) TDB
Reference: JPL 19 (heliocentric ecliptic J2000)
 Element Value Uncertainty (1-sigma)   Units 
e .15362729390011 4.5462e-08  
a 2.582550527639811 1.7274e-08 au
q 2.185800278718206 1.1761e-07 au
i 8.278733533383189 5.273e-06 deg
node 85.97378478949544 3.8753e-05 deg
peri 118.4593268501072 4.3157e-05 deg
M 155.3606982606213 2.0258e-05 deg
tp 2458346.300313810080
(2018-Aug-15.80031381)
8.2956e-05 TDB
period 1515.903891171334
4.15
1.521e-05
4.164e-08
d
yr
n .2374820739603941 2.3827e-09 deg/d
Q 2.979300776561417 1.9928e-08 au
  Orbit Determination Parameters
   # obs. used (total)      449  
   data-arc span      8294 days (22.71 yr)  
   first obs. used      1996-12-08  
   last obs. used      2019-08-24  
   planetary ephem.      DE431  
   SB-pert. ephem.      SB431-N16  
   condition code      0  
   norm. resid. RMS      .57388  
   source      ORB  
   producer      Otto Matic  
   solution date      2020-Feb-24 23:58:16  

Additional Information
 Earth MOID = 1.19534 au 
 Jupiter MOID = 2.02075 au 
 T_jup = 3.393 
[ show covariance matrix ]

Ephemeris | Orbit Diagram | Orbital Elements | Mission Design | Physical Parameters | Discovery Circumstances | Close-Approach Data ]

Physical Parameter Table
Parameter Symbol Value Units Sigma Reference Notes
absolute magnitude H 15.9   n/a MPO494129  
diameter diameter 1.675 km 0.267 urn:nasa:pds:neowise_diameters_albedos::2.0[mainbelt] (http://adsabs.harvard.edu/abs/2011ApJ...741...68M)  
geometric albedo albedo 0.251   0.145 urn:nasa:pds:neowise_diameters_albedos::2.0[mainbelt] (http://adsabs.harvard.edu/abs/2011ApJ...741...68M)  

201154 (2002 KX4)          Discovered 2002-May-16 by LINEAR at Socorro
Reference: 20081212/Numbers.arcLast Updated: 2008-12-12

[ show close-approach data ]
Ephemeris | Orbit Diagram | Orbital Elements | Mission Design | Physical Parameters | Discovery Circumstances | Close-Approach Data ]
ABOUT SSD CREDITS/AWARDS PRIVACY/COPYRIGHT GLOSSARY LINKS
FirstGov 2020-Oct-26 20:26 UT
(server date/time)  
NASA Home Page
Site Manager:   Ryan S. Park
Webmaster  Alan B. Chamberlin